When you browse on this site, cookies collect data to enhance your experience and personalize the content and advertising you see.
Visit our Privacy Policy to learn more. By continuing to use the site, you agree to this use of cookies and data.
  • In United Kingdom
  • List of Countries
  • For 7 days
  • Water Temperature
  • Satellite Maps
  • Weather Map
  • Weather Widgets
  • user-avatar
    Login

    Hourly Weather Aberfeldy

    Today, 19 June, Wednesday

    Time Temperature Precipitation Wind Pressure Humidity
    00:00 +7°C° 0 mm 1 mps 729 mmHg 97%
    01:00 +6°C° 0 mm 0 mps 729 mmHg 97%
    02:00 +6°C° 0 mm 0 mps 728 mmHg 97%
    03:00 +6°C° 0 mm 0 mps 728 mmHg 97%
    04:00 +8°C° 0 mm 1 mps 728 mmHg 95%
    05:00 +9°C° 0 mm 1 mps 728 mmHg 94%
    06:00 +11°C° 0 mm 1 mps 728 mmHg 93%
    07:00 +12°C° 0 mm 2 mps 728 mmHg 86%
    08:00 +13°C° 0 mm 2 mps 728 mmHg 79%
    09:00 +13°C° 0 mm 3 mps 728 mmHg 72%
    10:00 +13°C° 0.3 mm 3 mps 728 mmHg 73%
    11:00 +13°C° 0.3 mm 3 mps 728 mmHg 74%
    12:00 +14°C° 0.3 mm 3 mps 727 mmHg 74%
    13:00 +14°C° 0.4 mm 3 mps 727 mmHg 74%
    14:00 +14°C° 0.4 mm 3 mps 727 mmHg 74%
    15:00 +14°C° 0.4 mm 3 mps 727 mmHg 74%
    16:00 +13°C° 0.2 mm 3 mps 726 mmHg 75%
    17:00 +13°C° 0.2 mm 3 mps 726 mmHg 75%
    18:00 +13°C° 0.2 mm 3 mps 726 mmHg 76%
    19:00 +12°C° 0 mm 2 mps 726 mmHg 81%
    20:00 +10°C° 0 mm 2 mps 726 mmHg 87%
    21:00 +9°C° 0 mm 1 mps 726 mmHg 92%
    22:00 +9°C° 0 mm 1 mps 726 mmHg 93%
    23:00 +8°C° 0 mm 1 mps 726 mmHg 94%

    Tomorrow, 20 June, Thursday

    Time Temperature Precipitation Wind Pressure Humidity
    00:00 +7°C° 0 mm 1 mps 726 mmHg 96%
    01:00 +7°C° 0 mm 1 mps 726 mmHg 96%
    02:00 +6°C° 0 mm 1 mps 726 mmHg 97%
    03:00 +5°C° 0 mm 1 mps 725 mmHg 97%
    04:00 +5°C° 0 mm 2 mps 725 mmHg 94%
    05:00 +7°C° 0 mm 2 mps 725 mmHg 90%
    06:00 +8°C° 0 mm 2 mps 725 mmHg 87%
    07:00 +8°C° 0.1 mm 3 mps 726 mmHg 83%
    08:00 +9°C° 0.1 mm 3 mps 726 mmHg 80%
    09:00 +10°C° 0.1 mm 4 mps 726 mmHg 76%
    10:00 +10°C° 0.2 mm 4 mps 727 mmHg 77%
    11:00 +10°C° 0.2 mm 4 mps 727 mmHg 78%
    12:00 +10°C° 0.2 mm 4 mps 727 mmHg 79%
    13:00 +10°C° 0.1 mm 5 mps 727 mmHg 73%
    14:00 +11°C° 0.1 mm 6 mps 728 mmHg 66%
    15:00 +13°C° 0.1 mm 6 mps 728 mmHg 60%
    16:00 +11°C° 0.1 mm 6 mps 728 mmHg 63%
    17:00 +10°C° 0.1 mm 6 mps 729 mmHg 65%
    18:00 +9°C° 0.1 mm 5 mps 729 mmHg 68%
    19:00 +7°C° 0 mm 4 mps 729 mmHg 75%
    20:00 +7°C° 0 mm 3 mps 729 mmHg 81%
    21:00 +6°C° 0 mm 2 mps 730 mmHg 88%
    22:00 +5°C° 0 mm 2 mps 730 mmHg 90%
    23:00 +4°C° 0 mm 2 mps 730 mmHg 93%

    Day after tomorrow, 21 June, Friday

    Time Temperature Precipitation Wind Pressure Humidity
    00:00 +3°C° 0 mm 2 mps 731 mmHg 95%
    01:00 +4°C° 0 mm 1 mps 731 mmHg 96%
    02:00 +4°C° 0 mm 1 mps 731 mmHg 96%
    03:00 +4°C° 0 mm 1 mps 731 mmHg 96%
    04:00 +5°C° 0 mm 1 mps 731 mmHg 94%
    05:00 +6°C° 0 mm 1 mps 732 mmHg 91%
    06:00 +7°C° 0 mm 1 mps 732 mmHg 89%
    07:00 +7°C° 0 mm 2 mps 733 mmHg 82%
    08:00 +9°C° 0 mm 2 mps 733 mmHg 75%
    09:00 +10°C° 0 mm 3 mps 734 mmHg 67%
    10:00 +11°C° 0.1 mm 4 mps 734 mmHg 63%
    11:00 +12°C° 0.1 mm 4 mps 734 mmHg 58%
    12:00 +13°C° 0.1 mm 4 mps 735 mmHg 53%
    13:00 +13°C° 0.1 mm 4 mps 735 mmHg 56%
    14:00 +13°C° 0.1 mm 4 mps 735 mmHg 58%
    15:00 +13°C° 0.1 mm 4 mps 736 mmHg 61%
    16:00 +13°C° 0.1 mm 4 mps 736 mmHg 61%
    17:00 +12°C° 0.1 mm 4 mps 736 mmHg 62%
    18:00 +12°C° 0.1 mm 4 mps 736 mmHg 63%
    19:00 +10°C° 0 mm 3 mps 737 mmHg 70%
    20:00 +8°C° 0 mm 2 mps 737 mmHg 76%
    21:00 +8°C° 0 mm 1 mps 737 mmHg 83%
    22:00 +7°C° 0 mm 1 mps 737 mmHg 84%
    23:00 +6°C° 0 mm 1 mps 737 mmHg 86%

    22 June, Saturday

    Time Temperature Precipitation Wind Pressure Humidity
    00:00 +5°C° 0 mm 1 mps 737 mmHg 88%
    01:00 +5°C° 0 mm 1 mps 737 mmHg 87%
    02:00 +4°C° 0 mm 0 mps 737 mmHg 86%
    03:00 +4°C° 0 mm 0 mps 737 mmHg 84%
    04:00 +5°C° 0 mm 0 mps 738 mmHg 84%
    05:00 +7°C° 0 mm 1 mps 738 mmHg 84%
    06:00 +8°C° 0 mm 1 mps 738 mmHg 84%
    07:00 +9°C° 0 mm 1 mps 738 mmHg 84%
    08:00 +10°C° 0 mm 1 mps 738 mmHg 83%
    09:00 +10°C° 0 mm 2 mps 738 mmHg 83%
    10:00 +13°C° 0.1 mm 2 mps 738 mmHg 79%
    11:00 +14°C° 0.1 mm 2 mps 738 mmHg 74%
    12:00 +15°C° 0.1 mm 2 mps 738 mmHg 70%
    13:00 +15°C° 0.1 mm 2 mps 738 mmHg 69%
    14:00 +15°C° 0.1 mm 2 mps 738 mmHg 69%
    15:00 +16°C° 0.1 mm 2 mps 738 mmHg 69%
    16:00 +15°C° 0.4 mm 2 mps 738 mmHg 73%
    17:00 +15°C° 0.4 mm 2 mps 738 mmHg 78%
    18:00 +15°C° 0.4 mm 2 mps 738 mmHg 83%
    19:00 +13°C° 0.1 mm 1 mps 738 mmHg 86%
    20:00 +12°C° 0.1 mm 1 mps 738 mmHg 90%
    21:00 +10°C° 0.1 mm 1 mps 739 mmHg 93%
    22:00 +9°C° 0 mm 0 mps 739 mmHg 93%
    23:00 +8°C° 0 mm 0 mps 739 mmHg 93%

    23 June, Sunday

    Time Temperature Precipitation Wind Pressure Humidity
    00:00 +8°C° 0 mm 0 mps 738 mmHg 93%
    01:00 +8°C° 0 mm 1 mps 739 mmHg 92%
    02:00 +7°C° 0 mm 0 mps 739 mmHg 92%
    03:00 +7°C° 0 mm 0 mps 739 mmHg 92%
    04:00 +8°C° 0 mm 0 mps 739 mmHg 90%
    05:00 +9°C° 0 mm 0 mps 740 mmHg 87%
    06:00 +10°C° 0 mm 0 mps 740 mmHg 85%
    07:00 +12°C° 0 mm 1 mps 740 mmHg 81%
    08:00 +14°C° 0 mm 1 mps 740 mmHg 77%
    09:00 +15°C° 0 mm 1 mps 741 mmHg 73%
    10:00 +15°C° 0.3 mm 1 mps 741 mmHg 74%
    11:00 +16°C° 0.3 mm 2 mps 741 mmHg 74%
    12:00 +16°C° 0.3 mm 2 mps 741 mmHg 75%
    13:00 +16°C° 0.7 mm 2 mps 741 mmHg 78%
    14:00 +16°C° 0.7 mm 2 mps 741 mmHg 81%
    15:00 +16°C° 0.7 mm 2 mps 740 mmHg 84%
    16:00 +15°C° 0.5 mm 2 mps 740 mmHg 85%
    17:00 +15°C° 0.5 mm 2 mps 740 mmHg 86%
    18:00 +15°C° 0.5 mm 2 mps 740 mmHg 87%
    19:00 +14°C° 0.1 mm 2 mps 741 mmHg 90%
    20:00 +12°C° 0.1 mm 1 mps 741 mmHg 93%
    21:00 +11°C° 0.1 mm 1 mps 741 mmHg 96%
    22:00 +10°C° 0 mm 1 mps 741 mmHg 96%
    23:00 +10°C° 0 mm 1 mps 741 mmHg 95%

    24 June, Monday

    Time Temperature Precipitation Wind Pressure Humidity
    00:00 +9°C° 0 mm 1 mps 741 mmHg 95%
    01:00 +9°C° 0 mm 1 mps 741 mmHg 95%
    02:00 +8°C° 0 mm 1 mps 741 mmHg 95%
    03:00 +8°C° 0 mm 1 mps 741 mmHg 94%
    04:00 +9°C° 0 mm 1 mps 741 mmHg 93%
    05:00 +10°C° 0 mm 1 mps 741 mmHg 92%
    06:00 +11°C° 0 mm 1 mps 741 mmHg 91%
    07:00 +12°C° 0 mm 1 mps 742 mmHg 83%
    08:00 +13°C° 0 mm 2 mps 742 mmHg 75%
    09:00 +15°C° 0 mm 2 mps 742 mmHg 67%
    10:00 +14°C° 0 mm 3 mps 742 mmHg 65%
    11:00 +15°C° 0 mm 4 mps 742 mmHg 64%
    12:00 +16°C° 0 mm 5 mps 742 mmHg 63%
    13:00 +15°C° 0 mm 5 mps 742 mmHg 65%
    14:00 +15°C° 0 mm 5 mps 742 mmHg 67%
    15:00 +14°C° 0 mm 5 mps 742 mmHg 69%
    16:00 +13°C° 0 mm 5 mps 742 mmHg 71%
    17:00 +13°C° 0 mm 4 mps 742 mmHg 73%
    18:00 +12°C° 0 mm 4 mps 742 mmHg 75%
    19:00 +11°C° 0.1 mm 4 mps 742 mmHg 81%
    20:00 +10°C° 0.1 mm 3 mps 742 mmHg 86%
    21:00 +10°C° 0.1 mm 2 mps 743 mmHg 92%
    22:00 +10°C° 0.2 mm 2 mps 743 mmHg 93%
    23:00 +9°C° 0.2 mm 2 mps 743 mmHg 94%
    Show more